This is the latest recevied weather packets stored in our database for station/object KD8OZS. If no packets are shown the sender has not sent any weather packets the latest 10 day(s).
| Time | Temp. | Humidity | Pressure | Rain* | Wind** | Luminosity | Snow |
|---|---|---|---|---|---|---|---|
| 1777770287 | 3.89° C | 88% | 1009.8 hPa | 0 mm | - | 0 W/m² | - |
| 1777769985 | 3.89° C | 87% | 1009.7 hPa | 0 mm | - | 0 W/m² | - |
| 1777769682 | 3.89° C | 87% | 1009.7 hPa | 0 mm | - | 0 W/m² | - |
| 1777769379 | 3.89° C | 87% | 1009.7 hPa | 0 mm | - | 0 W/m² | - |
| 1777769075 | 4.44° C | 87% | 1009.7 hPa | 0 mm | - | 0 W/m² | - |
| 1777768773 | 4.44° C | 86% | 1009.9 hPa | 0 mm | - | 0 W/m² | - |
| 1777768470 | 4.44° C | 85% | 1009.9 hPa | 0 mm | - | 0 W/m² | - |
| 1777768167 | 4.44° C | 85% | 1009.8 hPa | 0 mm | - | 0 W/m² | - |
| 1777767864 | 5° C | 84% | 1009.7 hPa | 0 mm | - | 0 W/m² | - |
| 1777767560 | 5° C | 83% | 1009.7 hPa | 0 mm | - | 0 W/m² | - |
| 1777767257 | 5° C | 83% | 1009.6 hPa | 0 mm | - | 1 W/m² | - |
| 1777766955 | 5.56° C | 80% | 1009.5 hPa | 0 mm | - | 1 W/m² | - |
| 1777766651 | 5° C | 77% | 1009.6 hPa | 0 mm | - | 4 W/m² | - |
| 1777766349 | 5.56° C | 77% | 1009.6 hPa | 0 mm | - | 7 W/m² | - |
| 1777766045 | 5.56° C | 75% | 1009.4 hPa | 0 mm | - | 11 W/m² | - |
| 1777765743 | 5.56° C | 76% | 1009.5 hPa | 0 mm | - | 12 W/m² | - |
| 1777765439 | 5.56° C | 74% | 1009.7 hPa | 0 mm | - | 13 W/m² | - |
| 1777765136 | 5.56° C | 75% | 1009.4 hPa | 0 mm | - | 15 W/m² | - |
| 1777764832 | 5.56° C | 74% | 1009.5 hPa | 0 mm | - | 17 W/m² | - |
| 1777764529 | 5.56° C | 73% | 1009.5 hPa | 0 mm | - | 26 W/m² | - |
| 1777764225 | 5.56° C | 74% | 1009.5 hPa | 0 mm | - | 32 W/m² | - |
| 1777763922 | 5.56° C | 74% | 1009.4 hPa | 0 mm | - | 36 W/m² | - |
| 1777763620 | 5.56° C | 72% | 1009.3 hPa | 0 mm | - | 39 W/m² | - |
| 1777763318 | 5.56° C | 71% | 1009.5 hPa | 0 mm | - | 41 W/m² | - |
| 1777763016 | 5.56° C | 71% | 1009.6 hPa | 0 mm | - | 42 W/m² | - |
* Rain latest hour (hover to see other rain measurements)
** Current wind speed in m/s (hover to see current wind gust speed)